FW0887 Weather Reports


Display with metric or nautical units.
time (UTC)temp
F
wind
direction
speed
MPH
gust
MPH
rain 1hr
in
rain 24hr
in
rain mn
in
humidity
%
barometer
mb
20260505124514 78 194 0.0 3.0 0.00 0.00 0.00 41 1004.6
20260505123012 79 265 1.0 7.0 0.00 0.00 0.00 43 1004.7
20260505122155 77 338 1.0 2.0 0.00 0.00 0.00 47 1006.6
20260505121509 77 70 2.0 5.0 0.00 0.00 0.00 45 1004.9
20260505120021 77 123 2.0 4.0 0.00 0.00 0.00 39 1005.1
20260505114504 77 292 2.0 7.0 0.00 0.00 0.00 45 1005.3
20260505113002 76 213 1.0 4.0 0.00 0.00 0.00 44 1005.4
20260505112021 76 180 2.0 2.0 0.00 0.00 0.00 44 1007.4
20260505111558 75 173 1.0 3.0 0.00 0.00 0.00 43 1005.6
20260505101750 74 225 3.0 4.0 0.00 0.00 0.00 55 1007.9
20260505101552 73 215 2.0 6.0 0.00 0.00 0.00 54 1006.2
20260505100049 73 227 2.0 6.0 0.00 0.00 0.00 53 1006.4
20260505094546 73 229 2.0 5.0 0.00 0.00 0.00 54 1006.3
20260505093045 73 244 1.0 5.0 0.00 0.00 0.00 58 1006.5
20260505092143 72 0.0 1.0 0.00 0.00 0.00 58 1008.4
20260505091543 72 41 0.0 3.0 0.00 0.00 0.00 59 1006.7
20260505090045 72 251 2.0 4.0 0.00 0.00 0.00 60 1006.8
20260505084537 71 323 1.0 4.0 0.00 0.00 0.00 60 1007.0
20260505083033 71 334 1.0 7.0 0.00 0.00 0.00 60 1007.0
20260505082016 70 0.0 1.0 0.00 0.00 0.00 60 1008.7
20260505081538 70 9 0.0 2.0 0.00 0.00 0.00 62 1007.1
20260505080036 69 53 1.0 3.0 0.00 0.00 0.00 62 1007.3
20260505074525 69 25 0.0 2.0 0.00 0.00 0.00 64 1007.5
20260505073037 67 300 0.0 4.0 0.00 0.00 0.00 66 1007.6
20260505071947 66 0 1.0 3.0 0.00 0.00 0.00 67 1009.2
20260505071520 66 333 1.0 4.0 0.00 0.00 0.00 65 1007.6
20260505070015 64 279 1.0 4.0 0.00 0.00 0.00 68 1007.8
20260505064531 64 281 0.0 3.0 0.00 0.00 0.00 69 1007.8
20260505063012 64 57 0.0 2.0 0.00 0.00 0.00 69 1007.9
20260505061931 63 0 1.0 2.0 0.00 0.00 0.00 71 1009.6
20260505061524 63 328 0.0 2.0 0.00 0.00 0.00 71 1008.0
20260505060007 62 53 0.0 4.0 0.00 0.00 0.00 72 1008.1
20260505054506 60 64 0.0 3.0 0.00 0.00 0.00 75 1008.1
20260505053005 58 63 1.0 3.0 0.00 0.00 0.00 77 1008.1
20260505052023 58 68 1.0 2.0 0.00 0.00 0.00 78 1009.4
20260505051506 57 30 1.0 4.0 0.00 0.00 0.00 78 1008.1
20260505041601 57 110 0.0 1.0 0.00 0.00 0.00 76 1008.3
20260505040058 57 36 0.0 2.0 0.00 0.00 0.00 76 1008.3
20260505034557 58 34 2.0 4.0 0.00 0.00 0.00 75 1008.1
20260505033054 58 52 0.0 0.0 0.00 0.00 0.00 75 1008.4
20260505031939 59 45 1.0 2.0 0.00 0.00 0.00 75 1009.9
20260505031607 58 52 0.0 2.0 0.00 0.00 0.00 75 1008.3
20260505030052 58 52 0.0 2.0 0.00 0.00 0.00 75 1008.5
20260505024552 58 52 0.0 2.0 0.00 0.00 0.00 75 1008.6
20260505023105 58 52 0.0 2.0 0.00 0.00 0.00 75 1008.9
20260505021845 58 45 1.0 2.0 0.00 0.00 0.00 75 1010.5
20260505021548 58 52 0.0 2.0 0.00 0.00 0.00 75 1008.9
20260505020047 58 51 1.0 3.0 0.00 0.00 0.00 75 1009.0
20260505014546 58 198 0.0 0.0 0.00 0.00 0.00 75 1009.2
20260505013052 59 198 1.0 2.0 0.00 0.00 0.00 74 1009.3
20260505012007 60 0.0 0.0 0.00 0.00 0.00 71 1010.5
20260505011541 60 205 1.0 4.0 0.00 0.00 0.00 73 1009.2
20260505010038 60 329 0.0 3.0 0.00 0.00 0.00 71 1009.0
20260505004546 60 75 0.0 1.0 0.00 0.00 0.00 69 1009.2
20260505003035 60 75 0.0 1.0 0.00 0.00 0.00 67 1009.3
20260505001946 61 0.0 0.0 0.00 0.00 0.00 67 1011.0
20260505001533 60 75 0.0 1.0 0.00 0.00 0.00 67 1009.5
20260505000047 60 76 0.0 0.0 0.00 0.00 0.00 67 1009.6
20260504234530 60 76 0.0 0.0 0.00 0.00 0.00 67 1009.7
20260504233028 61 76 0.0 2.0 0.00 0.00 0.00 67 1009.8
20260504231857 62 0.0 0.0 0.00 0.00 0.00 64 1011.4
20260504231530 61 76 0.0 1.0 0.00 0.00 0.00 67 1009.9
20260504230025 61 76 0.0 2.0 0.00 0.00 0.00 64 1010.0
20260504224522 61 76 0.0 0.0 0.00 0.00 0.00 65 1010.1
20260504223022 62 76 0.0 0.0 0.00 0.00 0.00 64 1010.2
20260504221933 62 0.0 0.0 0.00 0.00 0.00 64 1011.7
20260504221520 62 76 0.0 0.0 0.00 0.00 0.00 64 1010.3
20260504220019 62 76 0.0 0.0 0.00 0.00 0.00 64 1010.3
20260504214519 62 76 0.0 0.0 0.00 0.00 0.00 64 1010.3
20260504213018 62 76 0.0 0.0 0.00 0.00 0.00 64 1010.4
20260504211908 63 0.0 0.0 0.00 0.00 0.00 63 1011.7
20260504211518 62 76 0.0 0.0 0.00 0.00 0.00 64 1010.4
20260504210022 62 77 0.0 0.0 0.00 0.00 0.00 62 1010.5
20260504204517 63 77 0.0 0.0 0.00 0.00 0.00 61 1010.6
20260504203016 63 77 0.0 0.0 0.00 0.00 0.00 63 1010.6
20260504201840 65 0.0 0.0 0.00 0.00 0.00 58 1011.9
20260504201515 64 77 0.0 0.0 0.00 0.00 0.00 60 1010.7
20260504200015 64 77 0.0 0.0 0.00 0.00 0.00 57 1010.6
20260504194515 65 76 0.0 0.0 0.00 0.00 0.00 57 1010.6
20260504193015 65 76 0.0 0.0 0.00 0.00 0.00 56 1010.6
20260504191823 67 0.0 1.0 0.00 0.00 0.00 54 1011.8
20260504191514 66 76 0.0 1.0 0.00 0.00 0.00 55 1010.5
20260504190014 66 76 2.0 3.0 0.00 0.00 0.00 53 1010.5
20260504184515 67 27 0.0 1.0 0.00 0.00 0.00 55 1010.4
20260504183013 68 27 0.0 2.0 0.00 0.00 0.00 53 1010.4
20260504181919 69 23 1.0 2.0 0.00 0.00 0.00 51 1011.5
20260504181512 68 27 0.0 2.0 0.00 0.00 0.00 52 1010.4
20260504180012 70 27 0.0 2.0 0.00 0.00 0.00 50 1010.4
20260504174511 71 321 0.0 2.0 0.00 0.00 0.00 45 1010.3
20260504173010 71 321 0.0 2.0 0.00 0.00 0.00 43 1010.4
20260504172012 72 315 1.0 2.0 0.00 0.00 0.00 41 1011.9
20260504171508 71 321 0.0 3.0 0.00 0.00 0.00 43 1010.5